Cloud_Cover
5 5 0 4 5 5 5 0 5 48 37 5 5 1 0 3 4 5 3 0 0 0 0 0 0 0 0 0 25 79 60 48 70 93 100 21 29 6 100 100 34 0 0 0 0
0 0 0 2 0 0 4 5 1 4 5 5 5 2 0 1 0 1 0 0 0 0 0 0 0 0 0 0 1 94 34 9 23 1 93 83 3 1 45 99 2 0 0 0 0
0 0 0 1 0 0 2 3 0 3 2 1 3 0 0 5 4 2 0 0 0 0 0 0 0 0 0 0 8 99 84 60 99 1 4 51 56 5 6 60 2 0 0 0 0
0 0 0 0 0 0 0 0 0 0 0 2 4 0 3 1 5 0 0 0 0 0 0 0 0 5 0 19 100 0 11 86 59 22 0 70 51 93 6 35 0 0 0 0 0
0 0 0 0 0 0 0 0 0 0 0 0 0 2 3 2 0 1 0 0 0 0 0 0 0 0 1 19 86 31 61 9 18 71 3 0 0 5 4 7 0 0 0 0 0
0 0 0 0 0 0 0 0 0 0 0 0 0 35 0 0 0 0 0 0 0 0 0 0 0 0 0 0 1 5 58 5 2 2 98 0 1 95 74 67 2 0 0 0 0
0 0 0 0 0 0 0 0 0 0 0 0 0 0 0 0 0 0 0 0 0 0 0 0 0 0 0 0 0 0 0 0 2 92 100 2 1 100 100 100 26 0 0 0 0
0 0 0 0 0 0 0 0 0 0 0 0 0 0 0 0 0 0 0 0 0 0 0 0 0 0 0 0 0 0 0 0 50 100 97 6 1 11 90 3 3 0 0 0 0
0 0 0 0 0 0 0 0 0 0 0 0 0 0 0 0 0 0 0 0 0 0 0 0 0 0 0 0 0 0 0 0 55 93 100 87 2 0 4 100 100 0 0 0 0
0 0 0 0 0 0 0 0 0 0 0 0 0 0 0 0 0 0 0 0 0 0 0 0 0 0 0 0 0 0 3 73 64 34 29 82 8 96 97 37 21 64 11 0 0
0 0 0 0 0 0 0 0 0 0 0 0 0 0 0 0 0 0 0 0 0 0 0 0 0 0 0 0 0 0 0 3 87 65 93 78 1 5 44 87 56 99 6 5 0
0 0 0 0 0 0 0 0 0 0 0 0 0 0 0 0 0 0 0 0 0 0 0 0 0 0 0 0 0 0 0 0 0 0 3 0 0 4 0 93 16 34 100 5 3
0 0 0 0 0 0 0 0 0 0 0 0 0 0 0 0 0 0 0 0 0 0 0 0 0 0 0 0 0 0 0 0 0 0 0 0 0 0 0 0 7 91 20 6 4
0 0 0 0 0 0 0 0 0 0 0 0 0 0 0 0 0 0 0 0 0 0 0 0 0 0 0 0 0 0 0 0 0 0 0 0 0 0 2 100 44 4 51 97 100
0 0 0 0 0 0 0 0 0 0 0 0 0 0 0 4 0 0 0 0 3 0 0 0 0 0 0 0 0 0 0 0 0 0 0 0 0 0 38 96 99 90 15 65 97
0 0 0 0 0 0 0 0 0 0 0 0 0 3 0 1 16 0 0 0 0 5 0 0 1 3 5 0 0 0 0 0 0 0 0 0 0 0 36 98 100 100 87 29 26
0 0 0 0 0 0 0 0 0 0 0 0 3 94 57 2 68 100 5 64 0 3 5 5 1 5 2 0 0 0 0 0 0 0 0 0 0 0 40 47 88 100 100 51 0
0 0 0 0 0 0 0 0 0 0 52 81 87 100 86 41 82 100 100 68 100 2 1 5 5 14 4 1 0 0 0 0 0 0 28 97 58 51 41 20 49 52 6 2 0
0 0 0 0 0 0 0 0 2 10 100 100 89 100 100 100 100 100 100 98 12 34 0 5 28 100 32 5 4 0 0 0 0 0 5 36 100 100 76 100 28 3 2 1 0
0 0 0 0 0 0 0 35 5 83 98 100 100 100 98 99 87 100 100 100 100 97 5 1 4 59 86 86 9 5 4 2 2 2 3 5 35 96 16 100 36 1 0 0 0
0 0 0 0 0 0 0 0 3 35 12 100 100 100 98 100 100 100 100 100 100 100 100 67 89 8 100 100 76 58 7 15 83 97 61 5 100 72 96 55 34 2 3 0 0
0 0 0 0 0 0 0 100 99 44 29 39 10 6 85 100 50 100 100 100 100 100 100 100 100 100 70 100 57 90 75 47 31 49 6 86 100 42 92 100 84 41 29 0 0
0 0 0 3 0 3 4 40 33 98 67 98 45 65 85 92 100 100 100 89 100 100 100 100 100 100 100 100 99 8 46 91 62 12 8 67 100 55 96 82 100 3 5 0 0
0 1 21 5 0 1 0 83 100 100 17 98 100 100 59 63 89 100 100 100 100 100 100 100 100 100 68 92 90 90 44 4 83 99 27 26 89 98 91 100 100 100 95 2 0
4 2 25 95 98 57 45 24 100 100 90 100 99 92 92 100 96 100 100 100 100 100 100 100 100 100 100 72 93 100 100 100 29 0 98 100 8 50 77 100 100 100 100 18 0
2 5 5 0 5 5 64 22 99 96 100 100 100 68 100 67 100 100 100 100 100 100 100 100 98 100 44 100 100 100 100 81 88 43 0 88 53 2 68 100 100 100 100 100 5
2 5 6 0 0 91 100 86 46 48 86 11 100 93 100 100 92 95 100 99 94 94 100 100 100 100 46 100 100 100 51 93 100 100 89 24 0 0 2 98 100 100 100 20 0